Weather reports worldwide

Advertisment
Winterbourne No 2, United Kingdom (99062): temperature & dewpoint: 04.07.2020 03:00:00 - 10.07.2020 03:00:00 (BST)Winterbourne No 2, United Kingdom (99062): temperature -20cm & temperature -100cm: 04.07.2020 03:00:00 - 10.07.2020 03:00:00 (BST)Winterbourne No 2, United Kingdom (99062): precipitation: 04.07.2020 03:00:00 - 10.07.2020 03:00:00 (BST)
Date & Time tt [°C] td [°C] tt -20cm [°C] tt -100cm [°C] rr [mm]
10.07.2020 03:00:00 11,6 11,2 - - 0,2
10.07.2020 02:00:00 11,7 11,4 - - 0,0
10.07.2020 01:00:00 11,4 11,0 - - 0,0
10.07.2020 00:00:00 11,6 11,1 - - 0,0
09.07.2020 23:00:00 11,6 11,1 - - 0,0
09.07.2020 22:00:00 11,9 11,4 - - 0,0
09.07.2020 21:00:00 12,1 11,4 - - 0,0
09.07.2020 20:00:00 12,6 12,0 - - 0,2
09.07.2020 19:00:00 12,8 12,1 - - 0,2
09.07.2020 18:00:00 13,1 12,4 - - 0,2
09.07.2020 17:00:00 13,7 13,0 - - 0,2
09.07.2020 16:00:00 13,7 13,1 - - 0,6
09.07.2020 15:00:00 13,9 13,3 - - 1,0
09.07.2020 14:00:00 13,8 13,1 - - 0,0
09.07.2020 13:00:00 14,1 13,4 - - 0,2
09.07.2020 12:00:00 14,4 13,9 - - 1,2
09.07.2020 11:00:00 14,8 12,7 - - 0,2
09.07.2020 10:00:00 17,5 15,5 16,2 15,0 0,0
09.07.2020 09:00:00 15,8 14,9 - - 0,0
09.07.2020 08:00:00 15,1 14,5 - - 0,0
09.07.2020 07:00:00 14,6 14,1 - - 0,0
09.07.2020 06:00:00 14,6 13,9 - - 0,0
09.07.2020 05:00:00 14,7 14,1 - - 0,0
09.07.2020 04:00:00 14,8 14,3 - - 0,2
09.07.2020 03:00:00 14,9 14,4 - - 0,4
09.07.2020 02:00:00 14,9 14,5 - - 0,2
09.07.2020 01:00:00 15,1 14,6 - - 0,4
09.07.2020 00:00:00 15,2 14,7 - - 1,2
08.07.2020 23:00:00 15,2 14,8 - - 0,2
08.07.2020 22:00:00 15,3 14,8 - - 0,2
08.07.2020 21:00:00 15,2 14,9 - - 0,2
08.07.2020 20:00:00 15,2 14,7 - - 1,0
08.07.2020 19:00:00 15,3 14,8 - - 1,0
08.07.2020 18:00:00 14,9 14,4 - - 1,6
08.07.2020 17:00:00 15,0 14,1 - - 1,2
08.07.2020 16:00:00 15,4 14,0 - - 0,0
08.07.2020 15:00:00 15,6 14,2 - - 0,0
08.07.2020 14:00:00 14,6 13,7 - - 0,0
08.07.2020 13:00:00 14,7 13,7 - - 0,2
08.07.2020 12:00:00 14,4 13,7 - - 0,2
08.07.2020 11:00:00 15,2 13,6 - - 0,2
08.07.2020 10:00:00 15,9 14,9 16,0 15,0 0,0
08.07.2020 09:00:00 15,3 14,4 - - 0,0
08.07.2020 08:00:00 14,7 14,3 - - 0,2
08.07.2020 07:00:00 14,3 14,0 - - 0,2
08.07.2020 06:00:00 14,1 13,8 - - 0,8
08.07.2020 05:00:00 14,0 13,6 - - 0,8
08.07.2020 04:00:00 13,9 13,6 - - 1,2
08.07.2020 03:00:00 14,0 13,6 - - 0,2
08.07.2020 02:00:00 13,8 13,5 - - 0,0
08.07.2020 01:00:00 13,6 13,3 - - 0,6
08.07.2020 00:00:00 13,4 13,1 - - 0,6
07.07.2020 23:00:00 13,1 12,8 - - 0,4
07.07.2020 22:00:00 12,7 12,4 - - 1,0
07.07.2020 21:00:00 12,5 12,0 - - 1,6
07.07.2020 20:00:00 12,4 11,6 - - 0,0
07.07.2020 19:00:00 12,5 11,2 - - 0,0
07.07.2020 18:00:00 12,6 11,5 - - 0,4
07.07.2020 17:00:00 12,5 11,2 - - 0,6
07.07.2020 16:00:00 13,2 11,6 - - 0,2
07.07.2020 15:00:00 13,5 12,1 - - 0,8
07.07.2020 14:00:00 13,2 11,9 - - 0,8
07.07.2020 13:00:00 13,2 11,3 - - 0,6
07.07.2020 12:00:00 15,1 10,1 - - 0,0
07.07.2020 11:00:00 14,9 10,5 - - 0,2
07.07.2020 10:00:00 15,0 10,2 16,2 15,0 0,0
07.07.2020 09:00:00 14,5 10,1 - - 0,0
07.07.2020 08:00:00 13,7 9,8 - - 0,0
07.07.2020 07:00:00 12,9 9,5 - - 0,0
07.07.2020 06:00:00 11,9 9,1 - - 0,0
07.07.2020 05:00:00 11,9 8,7 - - 0,0
07.07.2020 04:00:00 12,1 8,4 - - 0,0
07.07.2020 03:00:00 12,1 8,1 - - 0,0
07.07.2020 02:00:00 12,0 8,1 - - 0,0
07.07.2020 01:00:00 11,9 8,3 - - 0,0
07.07.2020 00:00:00 12,1 7,7 - - 0,0
06.07.2020 23:00:00 13,3 7,2 - - 0,0
06.07.2020 22:00:00 14,3 6,7 - - 0,0
06.07.2020 21:00:00 15,0 5,8 - - 0,0
06.07.2020 20:00:00 15,9 5,3 - - 0,0
06.07.2020 19:00:00 17,2 5,9 - - 0,0
06.07.2020 18:00:00 17,5 5,4 - - 0,0
06.07.2020 17:00:00 17,6 4,6 - - 0,0
06.07.2020 16:00:00 17,8 6,2 - - 0,0
06.07.2020 15:00:00 17,9 6,2 - - 0,0
06.07.2020 14:00:00 15,7 7,1 - - 0,0
06.07.2020 13:00:00 16,0 8,1 - - 0,0
06.07.2020 12:00:00 15,1 8,7 - - 0,0
06.07.2020 11:00:00 14,8 8,2 - - 0,0
06.07.2020 10:00:00 14,1 7,4 16,2 15,0 0,0
06.07.2020 09:00:00 14,6 8,0 - - 0,0
06.07.2020 08:00:00 13,3 7,7 - - 0,0
06.07.2020 07:00:00 12,2 8,0 - - 0,0
06.07.2020 06:00:00 10,8 8,1 - - 0,0
06.07.2020 05:00:00 10,7 7,6 - - 0,0
06.07.2020 04:00:00 11,0 8,1 - - 0,0
06.07.2020 03:00:00 11,3 8,4 - - 0,0
06.07.2020 02:00:00 12,0 8,1 - - 0,0
06.07.2020 01:00:00 12,2 8,0 - - 0,0
06.07.2020 00:00:00 11,9 8,0 - - 0,4
05.07.2020 23:00:00 13,1 8,0 - - 0,0
05.07.2020 22:00:00 13,9 6,3 - - 0,0
05.07.2020 21:00:00 14,8 5,8 - - 0,0
05.07.2020 20:00:00 15,6 4,9 - - 0,0
05.07.2020 19:00:00 16,2 5,4 - - 0,0
05.07.2020 18:00:00 16,6 6,5 - - 0,0
05.07.2020 17:00:00 17,0 6,2 - - 0,0
05.07.2020 16:00:00 17,4 7,3 - - 0,0
05.07.2020 15:00:00 17,3 5,7 - - 0,0
05.07.2020 14:00:00 16,8 5,5 - - 0,0
05.07.2020 13:00:00 17,0 6,3 - - 0,0
05.07.2020 12:00:00 16,6 5,0 - - 0,0
05.07.2020 11:00:00 16,6 6,6 - - 0,0
05.07.2020 10:00:00 16,2 7,2 16,5 15,0 0,0
05.07.2020 09:00:00 15,3 7,5 - - 0,0
05.07.2020 08:00:00 15,7 9,6 - - 0,0
05.07.2020 07:00:00 15,6 11,4 - - 0,0
05.07.2020 06:00:00 15,2 12,9 - - 0,0
05.07.2020 05:00:00 15,5 13,9 - - 0,4
05.07.2020 04:00:00 15,9 14,4 - - 0,0
05.07.2020 03:00:00 15,8 14,4 - - 0,2
05.07.2020 02:00:00 15,6 14,3 - - 0,0
05.07.2020 01:00:00 15,9 13,6 - - 0,0
05.07.2020 00:00:00 15,9 13,2 - - 0,0
04.07.2020 23:00:00 16,5 13,5 - - 0,0
04.07.2020 22:00:00 16,9 13,5 - - 0,0
04.07.2020 21:00:00 17,4 13,5 - - 0,0
04.07.2020 20:00:00 18,0 13,8 - - 0,0
04.07.2020 19:00:00 18,6 14,4 - - 0,0
04.07.2020 18:00:00 18,4 14,5 - - 0,0
04.07.2020 17:00:00 17,4 15,7 - - 0,0
04.07.2020 16:00:00 17,8 14,7 - - 0,0
04.07.2020 15:00:00 18,5 14,4 - - 0,0
04.07.2020 14:00:00 19,2 14,4 - - 0,0
04.07.2020 13:00:00 18,7 14,4 - - 0,0
04.07.2020 12:00:00 19,5 14,8 - - 0,0
04.07.2020 11:00:00 18,1 14,0 - - 0,0
04.07.2020 10:00:00 17,5 14,2 16,4 15,0 0,0
04.07.2020 09:00:00 16,8 14,1 - - 0,0
04.07.2020 08:00:00 16,6 14,1 - - 0,0
04.07.2020 07:00:00 16,1 14,0 - - 0,0
04.07.2020 06:00:00 16,0 14,0 - - 0,0
04.07.2020 05:00:00 15,7 14,0 - - 0,0
04.07.2020 04:00:00 15,4 14,0 - - 0,0
04.07.2020 03:00:00 15,1 13,9 - - 0,0

tt = temperature
td = dewpoint
tt -20cm = temperature -20cm
tt -100cm = temperature -100cm
rr = precipitation

Next stations